Disclaimer

Please do not use the information listed here in-flight or in-navigation, as they are not provided to us by the airports but are provided by volunteers, so they might be outdated.

Search


Regions


Airport information page

No radio frequency information is available.

Airport informations:
Latitude: 45° 06' 32.99" N
Longitude: 042° 06' 46.00" E
Elevation: 1486 feet - 453 meters
Operating hours: 24 hour operations
Operating agency: Civil government, landing fees and diplomatic clearance may be required
Timezone: UTC+3(+4DT) - Last Sunday in March to last Sunday in October
Fuel: N/A

Runway information:
07/25 - 8631 x 157 feet< - >2631 x 48 meters

Recent METARs:
URMT 192300Z 30005MPS 9999 SCT030 03/M03 Q1019 R25/010070 NOSIG RMK QFE725
URMT 192330Z 30005MPS 9999 SCT030 03/M02 Q1019 R25/010070 NOSIG RMK QFE725
URMT 200000Z 31005MPS 9999 BKN015 OVC030 03/M01 Q1019 R25/010070 NOSIG RMK QFE726

Airport on the map: